Providence, RI

7:27 PM EDT on July 23, 2017 (GMT -0400)
Green State

Weather History for KPVD - September, 2012

Change the Weather History Date:

Friday, September 14, 2012

  Actual Average Record
Temperature  
Mean Temperature 68 °F 66 °F  
Max Temperature 79 °F 75 °F 90 °F (1931)
Min Temperature 57 °F 56 °F 38 °F (1911)
Degree Days  
Heating Degree Days 0 2  
Month to date heating degree days 9 19  
Since 1 July heating degree days 9 28  
Cooling Degree Days 3 3  
Month to date cooling degree days 57 55  
Year to date cooling degree days 830 711  
Growing Degree Days 19 (Base 50)    
Moisture  
Dew Point 61 °F    
Average Humidity 78    
Maximum Humidity 100    
Minimum Humidity 56    
Precipitation  
Precipitation 0.00 in 0.13 in 5.43 in (1944)
Month to date precipitation 2.54 1.77  
Year to date precipitation 28.21 32.37  
Snow  
Snow 0.00 in 0.00 in 0.00 in (2015)
Month to date snowfall 0.0 0.0  
Since 1 July snowfall 0.0 0.0  
Since 1 September snowfall 0.0 0.0  
Snow Depth 0.00 in    
Sea Level Pressure  
Sea Level Pressure 30.20 in    
Wind  
Wind Speed 6 mph (South)    
Max Wind Speed 17 mph    
Max Gust Speed 21 mph    
Visibility 10 miles    
Events Fog    
T = Trace of Precipitation, MM = Missing Value Source: NWS Daily Summary

Daily Weather History Graph

Daily Weather History Graph

Search for Another Location

Airport or City:

Trip Planner

Search our weather history database for the weather conditions in past years. The results will help you decide how hot, cold, wet, or windy it might be!

Date:

Astronomy

Sep. 14, 2012 Rise Set
Actual Time 6:25 AM EDT 6:56 PM EDT
Civil Twilight 5:57 AM EDT 7:23 PM EDT
Nautical Twilight 5:24 AM EDT 7:56 PM EDT
Astronomical Twilight 4:50 AM EDT 8:30 PM EDT
Moon 4:45 AM EDT (9/14) 5:51 PM EDT (9/14)
Length of Visible Light 13h 26m
Length of Day
12h 30m
Waning Crescent, 3% of the Moon is Illuminated
Sep 14
Waning Crescent
Sep 15
New
Sep 22
First Quarter
Sep 29
Full
Oct 8
Last Quarter

Hourly Weather History & Observations

Time (EDT) Temp. Dew Point Humidity Pressure Visibility Wind Dir Wind Speed Gust Speed Precip Events Conditions
12:51 AM 62.1 °F 59.0 °F 90% 30.30 in 10.0 mi SW 3.5 mph - N/A   Clear
1:51 AM 60.1 °F 59.0 °F 96% 30.29 in 10.0 mi SSW 3.5 mph - N/A   Clear
2:51 AM 60.1 °F 57.9 °F 93% 30.28 in 10.0 mi SSW 3.5 mph - N/A   Clear
3:51 AM 59.0 °F 57.0 °F 93% 30.27 in 10.0 mi SSW 3.5 mph - N/A   Clear
4:51 AM 59.0 °F 57.0 °F 93% 30.27 in 10.0 mi SSW 3.5 mph - N/A   Clear
5:51 AM 60.1 °F 59.0 °F 96% 30.26 in 10.0 mi SW 3.5 mph - N/A   Partly Cloudy
6:51 AM 59.0 °F 57.9 °F 96% 30.27 in 10.0 mi Calm Calm - N/A Fog Patches of Fog
7:51 AM 63.0 °F 62.1 °F 97% 30.26 in 10.0 mi Calm Calm - N/A   Partly Cloudy
8:51 AM 69.1 °F 64.0 °F 84% 30.25 in 10.0 mi Calm Calm - N/A   Partly Cloudy
9:51 AM 72.0 °F 63.0 °F 73% 30.24 in 10.0 mi SSW 6.9 mph - N/A   Partly Cloudy
10:51 AM 73.9 °F 63.0 °F 68% 30.23 in 10.0 mi Variable 3.5 mph - N/A   Partly Cloudy
11:51 AM 75.0 °F 64.0 °F 69% 30.21 in 10.0 mi SSE 10.4 mph - N/A   Partly Cloudy
12:51 PM 78.1 °F 64.0 °F 62% 30.19 in 10.0 mi SSE 12.7 mph - N/A   Partly Cloudy
1:51 PM 78.1 °F 63.0 °F 60% 30.17 in 10.0 mi South 12.7 mph - N/A   Partly Cloudy
2:51 PM 77.0 °F 61.0 °F 58% 30.17 in 10.0 mi SSE 12.7 mph - N/A   Scattered Clouds
3:51 PM 77.0 °F 60.1 °F 56% 30.15 in 10.0 mi South 13.8 mph - N/A   Scattered Clouds
4:51 PM 73.9 °F 62.1 °F 66% 30.15 in 10.0 mi South 12.7 mph - N/A   Scattered Clouds
5:51 PM 72.0 °F 61.0 °F 68% 30.15 in 10.0 mi SSW 12.7 mph - N/A   Scattered Clouds
6:51 PM 68.0 °F 61.0 °F 78% 30.15 in 10.0 mi SSW 9.2 mph - N/A   Mostly Cloudy
7:51 PM 66.0 °F 61.0 °F 84% 30.14 in 10.0 mi SSW 5.8 mph - N/A   Mostly Cloudy
8:51 PM 63.0 °F 61.0 °F 93% 30.13 in 10.0 mi SSW 4.6 mph - N/A   Mostly Cloudy
9:51 PM 62.1 °F 60.1 °F 93% 30.12 in 10.0 mi SSW 4.6 mph - N/A   Mostly Cloudy
10:51 PM 62.1 °F 60.1 °F 93% 30.12 in 10.0 mi South 3.5 mph - N/A   Mostly Cloudy
11:51 PM 62.1 °F 61.0 °F 96% 30.11 in 9.0 mi South 3.5 mph - N/A   Mostly Cloudy